sat.trackr.live / text

‹ back to catalog

STARLINK-35037

NORAD 65483 · 2025-195AB

PAYLOAD ACTIVE UNKNOWN

§ Identity

Operator
Country
US
Launch date
2025-09-03
Launch site
AFETR
Launch vehicle
Mass (kg)
RCS (m²)

Purposes: comms

External: N2YO · Heavens-Above · Gunter

§ Orbital elements

Epoch: 2026-05-24T20:08:41.167104Z

Period
94.10 min
Inclination
53.1562°
Eccentricity
0.0000604
Mean motion
15.30213501 rev/d
Perigee alt
474.8 km
Apogee alt
475.6 km
Semi-major
6,853.3 km
B*
9.8409e-4
RAAN
264.3713°
Arg perigee
107.5384°
Mean anomaly
252.5683°
Rev number
4,163

§ Raw data

STARLINK-350371 65483U 25195AB  26144.83936536  .00028912  00000+0  98409-3 0  99922 65483  53.1562 264.3713 0000604 107.5384 252.5683 15.30213501 41630

JSON: /api/v1/satellites/65483 · /tle

For live sub-satellite position, see the globe view (requires WebGL).

§ Visibility from observer

Set your observer location to see the next 7 days of passes ≥ 10°. The values pass through the URL so the page stays shareable.

No JS? Fill the form by hand. The geolocation button needs JavaScript.